EHI
0 0 0 0 0 0 0 0 0 0 0 0 0 0 0 0 0 0 0 0 0 0 0 0 0 0 0 0 0 0 0 0 0 0 0 0 0 0 0 0 0 0 0
0 0 0 0 0 0 0 0 0 0 0 0 0 0 0 0 0 0 0 0 0 0 0 0 0 0 0 0 0 0 0 0 0 0 0 0 0 0 0 0 0 0 0
0 0 0 0 0 0 0 0 0 0 0 0 0 0 0 0 0 0 0 0 0 0 0 0 0 0 0 0 0 0 0 0 0 0 0 0 0 0 0 0 0 0 0
1 0 0 0 0 0 0 0 0 0 0 0 0 0 0 0 0 0 0 0 0 0 0 0 0 0 0 0 0 0 0 0 0 0 0 0 0 0 0 0 0 0 0
1 0 0 0 0 0 0 0 0 0 0 0 0 0 0 0 0 0 0 0 0 0 0 0 0 0 0 0 0 0 0 0 0 0 0 0 0 0 0 0 0 0 0
1 0 0 0 0 0 0 0 0 0 0 0 0 0 0 0 0 0 0 0 0 0 0 0 0 0 0 0 0 0 0 0 0 0 0 0 0 0 0 0 0 0 0
0 0 0 0 0 0 0 0 0 0 0 0 0 0 0 0 0 0 0 0 0 0 0 0 0 0 0 0 0 0 0 0 0 0 0 0 0 0 0 0 0 0 0
0 0 0 0 0 0 0 0 0 0 0 0 0 0 0 0 0 0 0 0 0 0 0 0 0 0 0 0 0 0 0 0 0 0 0 0 0 0 0 0 0 0 0
0 0 0 0 0 0 0 0 0 0 0 0 0 0 0 0 0 0 0 0 0 0 0 0 0 0 0 0 0 0 0 0 0 0 0 0 0 0 0 0 0 0 0
0 0 0 0 0 0 0 0 0 0 0 0 0 0 0 0 0 0 0 0 0 0 0 0 0 0 0 0 0 0 0 0 0 0 0 0 0 0 0 0 0 0 0
0 0 0 0 0 0 0 0 0 0 0 0 0 0 0 0 0 0 0 0 0 0 0 0 0 0 0 0 0 0 0 0 0 0 0 0 0 0 0 0 0 0 0
0 0 0 0 0 0 0 0 0 0 0 0 0 0 0 0 0 0 0 0 0 0 0 0 0 0 0 0 0 0 0 0 0 0 0 0 0 0 0 0 0 0 0
0 0 0 0 0 0 0 0 0 0 0 0 0 0 0 0 0 0 0 0 0 0 0 0 0 0 0 0 0 0 0 0 0 0 0 0 0 0 0 0 0 0 0
0 0 0 0 0 0 0 0 0 0 0 0 0 0 0 0 0 0 0 0 0 0 0 0 0 0 0 0 0 0 0 0 0 0 0 0 0 0 0 0 0 0 0
0 0 0 0 0 0 0 0 0 0 0 0 0 0 0 0 0 0 0 0 0 0 0 0 0 0 0 0 0 0 0 0 0 0 0 0 0 0 0 0 0 0 0
0 0 0 0 0 0 0 0 0 0 0 0 0 0 0 0 0 0 0 0 0 0 0 0 0 0 0 0 0 0 0 0 0 0 0 0 0 0 0 0 0 0 0
0 0 0 0 0 0 0 0 0 0 0 0 0 0 0 0 0 0 0 0 0 0 0 0 0 0 0 0 0 0 0 0 0 0 0 0 0 0 0 0 0 0 0
0 0 0 0 0 0 0 0 0 0 0 0 0 0 0 0 0 0 0 0 0 0 0 0 0 0 0 0 0 0 0 0 0 0 0 0 0 0 0 0 0 0 0
0 0 0 0 0 0 0 0 0 0 0 0 0 0 0 0 0 0 0 0 0 0 0 0 0 0 0 0 0 0 0 0 0 0 0 0 0 0 0 0 0 0 0
0 0 0 0 0 0 0 0 0 0 0 0 0 0 0 0 0 0 0 0 0 0 0 0 0 0 0 0 0 0 0 0 0 0 0 0 0 0 0 0 0 0 0
0 0 0 0 0 0 0 0 0 0 0 0 0 0 0 0 0 0 0 0 0 0 0 0 0 0 0 0 0 0 0 0 0 0 0 0 0 0 0 0 0 0 0
0 0 0 0 0 0 0 0 0 0 0 0 0 0 0 0 0 0 0 0 0 0 0 0 0 0 0 0 0 0 0 0 0 0 0 0 0 0 0 0 0 0 0
0 0 0 0 0 0 0 0 0 0 0 0 0 0 0 0 0 0 0 0 0 0 0 0 0 0 0 0 0 0 0 0 0 0 0 0 0 0 0 0 0 0 0
0 0 0 0 0 0 0 0 0 0 0 0 0 0 0 0 0 0 0 0 0 0 0 0 0 0 0 0 0 0 0 0 0 0 0 0 0 0 0 0 0 0 0
0 0 0 0 0 0 0 0 0 0 0 0 0 0 0 0 0 0 0 0 0 0 0 0 0 0 0 0 0 0 0 0 0 0 0 0 0 0 0 0 0 0 0
0 0 0 0 0 0 0 0 0 0 0 0 0 0 0 0 0 0 0 0 0 0 0 0 0 0 0 0 0 0 0 0 0 0 0 0 0 0 0 0 0 0 0
Wind_Speed
4 4 3 3 3 3 3 2 3 4 3 4 4 4 3 3 3 5 4 11 11 11 10 10 11 11 11 11 11 11 12 12 12 13 13 13 14 14 14 14 14 14 14
4 4 4 4 3 3 3 3 4 3 3 3 3 3 3 3 3 5 5 7 11 10 9 9 10 10 11 12 12 12 12 12 13 13 13 14 14 14 15 15 15 15 15
6 5 4 4 4 4 4 4 4 3 3 2 2 2 2 2 2 2 5 4 5 7 7 7 8 10 11 12 12 13 13 13 13 13 14 14 15 15 15 16 16 16 16
7 6 5 4 5 4 4 3 3 3 3 3 2 2 2 1 1 2 3 4 4 3 3 3 6 9 10 12 13 13 13 13 13 14 14 15 15 16 16 17 17 17 17
8 7 5 5 5 5 4 4 4 3 3 2 2 1 1 1 1 2 2 4 4 3 1 1 4 7 10 12 13 13 13 13 13 14 15 16 17 17 18 18 19 19 19
9 8 6 6 6 5 4 4 4 3 3 2 3 1 0 1 1 2 1 2 3 3 2 0 1 4 9 13 14 14 13 14 14 15 16 17 18 19 19 20 20 20 21
10 9 7 7 6 5 5 5 4 4 3 3 2 2 1 1 2 2 2 1 1 2 2 0 1 1 3 10 14 15 14 14 15 16 17 18 19 20 21 22 22 22 23
10 9 9 7 6 6 6 5 4 3 2 2 2 1 2 2 2 2 2 2 2 0 0 1 1 2 2 2 8 14 14 15 17 18 19 20 21 22 23 24 24 24 24
9 9 9 8 7 6 5 5 4 4 3 2 3 2 2 1 3 3 2 1 1 1 1 2 3 3 3 3 4 8 13 16 17 19 21 22 24 24 25 25 25 25 25
9 9 9 9 8 6 6 5 4 3 3 2 1 2 2 2 0 4 4 2 2 2 3 3 3 4 4 3 6 11 14 16 19 21 23 25 26 26 26 26 26 26 26
8 9 9 8 8 6 7 6 4 4 3 3 2 1 1 0 2 2 4 4 4 3 4 4 4 4 5 4 4 8 15 17 21 23 25 27 27 27 27 27 27 27 27
7 9 9 8 8 7 6 6 5 5 4 3 2 1 1 0 0 1 3 3 4 4 5 5 6 5 4 4 6 12 16 19 22 25 27 28 27 27 27 28 28 28 28
8 9 9 8 7 7 6 5 5 5 4 3 1 0 1 0 1 1 2 4 5 4 5 4 3 3 4 2 3 13 16 21 24 26 28 29 28 28 28 28 28 28 28
9 9 10 9 9 7 6 5 4 3 3 2 2 1 0 1 1 1 2 3 5 4 3 5 5 5 4 4 9 18 10 22 25 27 29 29 29 29 29 29 29 29 29
10 11 11 10 8 7 6 5 3 3 3 2 1 0 1 2 1 2 2 2 3 5 5 4 4 4 6 6 12 9 7 19 27 28 29 29 29 29 29 29 29 29 29
11 12 11 10 8 7 6 4 3 3 1 1 1 1 2 2 2 1 2 3 3 6 8 4 4 6 7 10 17 11 10 26 27 28 29 29 29 30 30 30 30 30 30
13 12 11 9 8 6 5 4 3 3 1 2 2 3 3 3 2 2 2 3 4 5 10 8 5 5 7 9 10 9 10 10 12 25 28 29 30 30 30 30 30 30 30
11 11 10 9 7 6 4 3 2 1 2 2 3 3 3 3 3 3 3 4 4 5 8 12 7 6 8 9 10 10 12 12 9 22 28 29 29 30 30 30 30 30 30
11 10 9 8 6 5 4 3 2 1 2 3 3 4 4 3 4 4 4 4 4 6 6 9 10 6 7 9 10 11 12 9 12 17 23 25 27 29 30 31 30 30 30
11 9 8 7 6 4 3 2 2 2 3 4 4 4 4 4 5 4 4 5 5 6 6 8 10 9 9 8 8 9 10 7 9 12 17 20 24 28 29 30 31 31 30
11 9 8 6 5 3 3 4 4 4 4 5 5 5 5 7 10 8 7 5 6 5 6 8 10 11 9 8 8 8 12 10 9 10 10 10 11 11 14 21 26 28 29
9 7 6 5 3 3 5 3 3 3 5 6 6 5 6 7 10 14 16 16 15 10 9 9 10 12 12 10 9 9 11 13 14 5 7 12 10 12 11 9 21 29 30
7 6 5 3 3 4 3 3 6 4 5 6 6 5 6 6 11 5 11 16 14 19 21 15 13 13 13 11 10 11 12 14 16 10 10 15 10 12 11 14 26 30 31
6 5 4 3 2 2 1 3 7 5 5 6 6 6 6 6 7 10 8 6 7 10 15 13 11 12 11 10 11 14 14 13 12 9 8 14 13 13 13 10 22 29 30
5 4 3 2 1 0 0 3 7 3 4 6 6 6 8 7 15 19 10 8 10 10 16 21 23 22 26 27 21 11 8 10 14 12 6 8 10 13 13 12 14 23 24
4 3 1 0 1 1 2 5 8 2 4 5 5 6 13 15 18 20 11 10 13 11 10 12 14 17 15 15 20 11 7 10 12 11 4 4 7 10 11 6 5 8 13
Wind_Direction
165 155 143 139 133 129 127 105 81 74 50 40 40 48 35 32 50 83 80 80 78 73 65 56 46 35 25 15 8 2 356 351 346 342 339 336 333 331 329 326 324 321 319
163 143 135 123 111 103 102 98 88 81 64 47 23 24 31 34 51 92 112 89 86 79 65 51 38 26 14 4 357 350 345 341 338 335 332 329 327 324 322 319 316 314 312
150 140 131 124 120 114 101 89 84 78 68 31 13 30 41 46 34 98 125 123 105 91 75 50 27 12 2 353 347 342 339 336 334 331 328 325 322 320 317 314 311 308 307
145 135 127 125 119 106 98 90 79 79 66 31 6 3 5 54 13 82 106 120 120 110 93 52 15 360 350 344 340 337 336 335 332 329 326 322 320 317 315 311 308 305 303
140 128 124 123 114 102 99 94 64 70 65 21 319 286 343 55 87 86 95 113 111 108 114 306 359 347 340 336 332 331 331 332 330 327 324 322 319 316 313 310 306 303 300
130 124 126 123 114 110 106 105 106 78 62 359 310 310 169 115 139 149 138 129 153 174 194 16 21 346 339 330 328 326 326 327 326 324 323 320 317 314 311 308 304 301 298
130 131 129 124 124 126 131 130 119 103 55 1 359 338 297 202 199 173 173 171 208 197 183 209 39 14 329 326 325 320 322 323 323 322 320 318 315 312 309 306 303 300 297
133 135 133 131 127 121 112 109 108 110 81 37 48 15 354 331 299 225 180 199 233 197 196 322 349 321 306 301 304 313 318 318 318 317 316 316 314 311 308 304 301 298 295
128 132 131 128 124 120 120 114 111 115 130 83 57 95 107 282 320 313 263 221 215 256 280 295 290 282 289 291 292 303 306 312 311 312 314 314 311 308 304 301 299 297 296
128 129 128 126 121 118 117 115 109 112 116 123 99 68 117 130 110 317 319 322 350 327 302 294 292 279 272 270 278 293 301 305 308 310 311 311 308 305 303 301 300 299 297
125 126 125 123 121 118 114 111 106 97 103 109 107 84 64 66 195 210 282 305 324 315 316 301 285 272 263 255 255 274 292 303 306 307 307 306 305 303 303 303 302 301 299
127 125 124 121 118 117 118 120 115 97 93 93 87 99 127 171 283 259 275 297 295 288 298 284 278 268 258 257 268 292 302 304 304 303 303 302 302 303 304 304 302 300 297
142 137 130 122 118 117 117 113 108 107 103 102 92 79 66 242 252 250 270 285 291 297 286 279 290 304 300 305 304 309 306 305 304 303 301 301 302 303 302 300 298 297 295
143 136 129 123 122 122 121 116 117 128 128 157 214 172 209 263 264 245 250 289 302 290 283 295 312 303 323 327 310 315 309 306 303 301 300 301 302 301 299 298 297 296 294
138 131 126 126 126 124 123 127 132 148 156 188 195 190 249 253 246 246 251 242 262 288 291 277 290 326 329 313 308 307 295 302 303 301 302 301 300 299 298 298 297 295 293
133 130 127 126 125 123 128 134 137 129 132 212 179 225 266 265 272 268 263 261 250 268 282 277 294 297 306 310 306 305 298 302 302 300 298 298 298 298 298 297 296 295 293
132 129 128 127 126 127 131 133 140 144 194 265 263 246 256 263 267 268 270 269 265 265 280 286 279 292 298 295 296 289 290 286 288 296 298 299 299 299 299 298 296 295 293
125 124 124 123 123 122 120 124 130 149 238 267 277 280 279 282 278 273 269 267 269 269 281 293 296 294 291 292 290 289 296 295 291 297 300 300 301 300 299 298 296 295 293
117 115 114 114 113 110 103 88 69 348 303 285 276 269 270 276 278 274 277 280 280 288 286 294 299 294 291 290 292 291 289 290 294 298 301 301 299 298 297 298 298 298 297
112 108 105 105 105 105 100 71 26 334 307 295 285 274 265 258 259 264 276 273 277 281 283 288 293 293 289 285 286 294 296 285 290 296 294 294 294 298 297 298 297 296 295
105 103 104 102 105 112 89 56 11 336 325 313 304 293 283 285 287 286 283 270 275 276 282 287 291 292 292 294 293 293 297 297 287 283 284 286 290 287 289 290 293 291 290
103 104 106 110 115 102 87 35 342 326 317 308 300 297 297 295 295 300 305 304 301 299 298 291 292 292 294 291 291 292 297 299 297 272 284 292 287 286 285 280 288 293 294
107 106 107 109 106 114 104 359 329 324 304 292 291 293 297 297 307 295 294 297 298 298 297 295 292 290 290 288 287 289 288 287 289 292 295 293 289 287 285 289 295 296 296
108 107 106 95 88 143 128 341 328 330 305 298 297 294 291 290 292 297 283 283 278 289 290 290 282 282 287 286 280 285 287 287 285 281 273 286 293 291 292 287 292 292 293
101 100 96 74 31 74 226 333 335 319 303 304 304 312 316 301 302 308 310 301 294 290 297 297 296 298 299 300 300 299 295 297 296 294 279 274 288 298 293 285 283 288 293
97 96 99 287 296 284 301 325 329 304 303 304 305 306 310 309 309 313 311 301 300 298 294 295 297 297 294 292 300 297 293 296 296 297 279 280 296 311 300 269 265 287 290